This is the latest recevied weather packets stored in our database for station/object WW1TA. If no packets are shown the sender has not sent any weather packets the latest 10 day(s).
| Time | Temp. | Humidity | Pressure | Rain* | Wind** | Luminosity | Snow |
|---|---|---|---|---|---|---|---|
| 1777765047 | 12.78° C | 99% | 1014.1 hPa | 0 mm | - | 7 W/m² | - |
| 1777764744 | 13.33° C | 99% | 1014.1 hPa | 0 mm | - | 6 W/m² | - |
| 1777764439 | 13.33° C | 99% | 1013.8 hPa | 0 mm | - | 7 W/m² | - |
| 1777764137 | 13.33° C | 99% | 1013.5 hPa | 0 mm | - | 12 W/m² | - |
| 1777761714 | 13.33° C | 99% | 1013.3 hPa | 0 mm | - | 16 W/m² | - |
| 1777761411 | 13.33° C | 99% | 1013.5 hPa | 0.51 mm | - | 33 W/m² | - |
| 1777761109 | 13.33° C | 99% | 1013.6 hPa | 0.51 mm | - | 28 W/m² | - |
| 1777760807 | 13.33° C | 99% | 1013.5 hPa | 0 mm | - | 43 W/m² | - |
| 1777760198 | 13.33° C | 99% | 1013.5 hPa | 0 mm | - | 35 W/m² | - |
| 1777759896 | 13.89° C | 99% | 1013.2 hPa | 0.51 mm | - | 24 W/m² | - |
| 1777758373 | 13.33° C | 99% | 1012.7 hPa | 0 mm | - | 91 W/m² | - |
| 1777758071 | 13.89° C | 99% | 1012.8 hPa | 0 mm | - | 72 W/m² | - |
| 1777757768 | 13.33° C | 99% | 1012.7 hPa | 0 mm | - | 61 W/m² | - |
| 1777757465 | 13.33° C | 99% | 1012.7 hPa | 0 mm | - | 53 W/m² | - |
| 1777757164 | 13.33° C | 99% | 1012.3 hPa | 0 mm | - | 40 W/m² | - |
| 1777756861 | 13.33° C | 99% | 1012.4 hPa | 0 mm | - | 55 W/m² | - |
| 1777756556 | 13.33° C | 99% | 1012.3 hPa | 0 mm | - | 59 W/m² | - |
| 1777756254 | 13.33° C | 99% | 1012.3 hPa | 0 mm | - | 56 W/m² | - |
| 1777755951 | 13.33° C | 99% | 1012.5 hPa | 0 mm | - | 45 W/m² | - |
| 1777755344 | 13.33° C | 99% | 1012.2 hPa | 0 mm | - | 33 W/m² | - |
| 1777755042 | 13.33° C | 99% | 1012.3 hPa | 0 mm | - | 42 W/m² | - |
| 1777754133 | 13.89° C | 99% | 1012.1 hPa | 0 mm | - | 82 W/m² | - |
| 1777753830 | 13.89° C | 99% | 1012.2 hPa | 0 mm | - | 111 W/m² | - |
| 1777753526 | 13.89° C | 99% | 1011.9 hPa | 0 mm | - | 77 W/m² | - |
| 1777753225 | 13.89° C | 99% | 1012 hPa | 0.51 mm | - | 82 W/m² | - |
* Rain latest hour (hover to see other rain measurements)
** Current wind speed in m/s (hover to see current wind gust speed)